Location: Gro�wechsungen
(51.4926°N, 10.6901°E)
Time: 07:11:00
(UTC+00:00)

SPOT 3 Rocket - Pass Details

Date: 01 February 2021
Orbit: 780 x 794 km, 98.7° (Epoch: 24 February)

Event Time Altitude Azimuth Distance (km) Brightness Sun altitude
Exits shadow 19:01:37 24° 9° (N) 1,603 5.1 -27.2°
Drops below altitude 10° 19:03:46 10° 356° (N) 2,354 6.1 -27.5°
Sets 19:06:11 0° 349° (N) 3,289 7.0 -27.9°
